This is the latest recevied weather packets stored in our database for station/object N5AJY. If no packets are shown the sender has not sent any weather packets the latest 10 day(s).
| Time | Temp. | Humidity | Pressure | Rain* | Wind** | Luminosity | Snow |
|---|---|---|---|---|---|---|---|
| 1777014104 | 15° C | 95% | 1000.5 hPa | 0 mm | - | - | - |
| 1777013804 | 15° C | 94% | 1000.8 hPa | 0 mm | - | - | - |
| 1777013505 | 15.56° C | 94% | 1000.5 hPa | 0 mm | - | - | - |
| 1777013205 | 15.56° C | 92% | 1000.8 hPa | 0 mm | - | - | - |
| 1777012604 | 16.11° C | 88% | 1002.2 hPa | 0 mm | - | - | - |
| 1777012304 | 16.67° C | 86% | 1001.7 hPa | 0 mm | - | - | - |
| 1777011706 | 18.89° C | 78% | 1002.2 hPa | 0 mm | - | - | - |
| 1777011404 | 18.89° C | 78% | 1001.6 hPa | 0 mm | - | - | - |
| 1777011103 | 18.89° C | 78% | 1000.5 hPa | 0 mm | - | - | - |
| 1777010804 | 18.89° C | 77% | 1000.5 hPa | 0 mm | - | - | - |
| 1777010504 | 19.44° C | 77% | 1000.9 hPa | 0 mm | - | - | - |
| 1777010202 | 19.44° C | 76% | 1000.9 hPa | 0 mm | - | - | - |
| 1777009904 | 20° C | 75% | 1001 hPa | 0 mm | - | - | - |
| 1777009603 | 20.56° C | 74% | 1001 hPa | 0 mm | - | - | - |
| 1777009305 | 20.56° C | 73% | 1000.6 hPa | 0 mm | - | - | - |
| 1777009006 | 21.67° C | 74% | 1000.6 hPa | 0 mm | - | - | - |
| 1777008704 | 22.22° C | 81% | 1000.3 hPa | 0 mm | - | - | - |
| 1777008403 | 22.22° C | 80% | 1000.2 hPa | 0 mm | - | - | - |
| 1777008104 | 22.22° C | 80% | 1000.1 hPa | 0 mm | - | - | - |
| 1777007803 | 22.22° C | 80% | 1000 hPa | 0 mm | - | - | - |
| 1777007204 | 22.22° C | 80% | 999.5 hPa | 0 mm | - | - | - |
| 1777006903 | 22.22° C | 80% | 999.2 hPa | 0 mm | - | - | - |
| 1777006604 | 22.22° C | 79% | 999 hPa | 0 mm | - | - | - |
| 1777006305 | 22.22° C | 79% | 998.9 hPa | 0 mm | - | - | - |
| 1777006004 | 22.22° C | 79% | 999.2 hPa | 0 mm | - | - | - |
* Rain latest hour (hover to see other rain measurements)
** Current wind speed in m/s (hover to see current wind gust speed)